User: anonymous   Login
Location: *
(0.1100°N, 5.5000°E)
Time: 12:16:10
(UTC+00:00)
Language:

COSMOS 2251 DEB - Orbit

View from above orbital plane
View from above orbital plane
View from above satellite
View from above satellite

Ground track
Ground track

The orbit data is extracted from the following two-line orbital elements,

1 37487U 93036BLQ 23337.90499110  .00008146  00000-0  22453-2 0  9998
2 37487  73.9239 178.4388 0046645 174.4956 185.6725 14.46338574704341
Epoch (UTC): 03 December 2023 21:43:11
Eccentricity: 0.0046645
inclination: 73.9239°
perigee height: 704 km
apogee height: 771 km
right ascension of ascending node: 178.4388°
argument of perigee: 174.4956°
revolutions per day: 14.46338574
mean anomaly at epoch: 185.6725°
orbit number at epoch: 70434

The dashed part of the orbit path shows where the satellite is in the earth's shadow,  

DLR